{"data":{"norad_id":52757,"intl_designator":"2022-057AB","name":"HAWK-5A","alt_names":[],"object_type":"PAYLOAD","status":"ACTIVE","operator":null,"country":"US","launch_date":"2022-05-25","launch_site_code":"AFETR","launch_vehicle":null,"mission":null,"orbit_class":"UNKNOWN","rcs_meters":null,"size_class":null,"mass_kg":null,"dimensions":null,"purposes":["tech_demo"],"wikipedia_slug":null,"has_3d_model":false,"image_url":null,"decayed_at":null,"tle_current":{"epoch":"2026-09-19T21:28:25.006368Z","epoch_age_seconds":66842,"freshness":"FRESH","line1":"1 52757U 22057AB  26262.89473387  .00014887  00000+0  22809-3 0  9990","line2":"2 52757  97.6695  68.1484 0005292  84.2369 275.9487 15.54432956241048","mean_motion":15.54432956,"eccentricity":0.0005292,"inclination_deg":97.6695,"raan_deg":68.1484,"arg_perigee_deg":84.2369,"mean_anomaly_deg":275.9487,"bstar":0.00022809,"rev_number":24104,"period_min":92.638282946955,"perigee_km":400.21245552291,"apogee_km":407.39045918618,"semimajor_km":6781.9384573545,"source":"CELESTRAK","updated_at":"2026-09-20T09:00:47.450963Z"}}}